Weather History for Nausori, Fiji

Change the Weather History Date:

Thursday, December 31, 1998

  Actual Average Record
Temperature  
Mean Temperature 82 °F -  
Max Temperature 86 °F - - ()
Min Temperature 77 °F - - ()
Cooling Degree Days 16    
Growing Degree Days 32 (Base 50)    
Moisture  
Dew Point 76 °F    
Average Humidity 90    
Maximum Humidity 94    
Minimum Humidity 70    
Precipitation  
Precipitation 0.00 in - - ()
Sea Level Pressure  
Sea Level Pressure 29.76 in    
Wind  
Wind Speed 5 mph ()    
Max Wind Speed 18 mph    
Max Gust Speed -    
Visibility 13.8 miles    
Events Rain    
T = Trace of Precipitation, MM = Missing Value Source: Averaged Metar Reports

Daily Weather History Graph

Daily Weather History Graph

Search for Another Location

Airport:

Trip Planner

Search our weather history database for the weather conditions in past years. The results will help you decide how hot, cold, wet, or windy it might be!

Date:

Astronomy

Dec. 31, 1998 Rise Set
Actual Time 6:32 AM FJST 7:44 PM FJST
Civil Twilight 6:08 AM FJST 8:08 PM FJST
Nautical Twilight 5:39 AM FJST 8:37 PM FJST
Astronomical Twilight 5:10 AM FJST 9:06 PM FJST
Moon 5:41 PM FJST (12/31) 4:23 AM FJST (12/31)
Length of Visible Light 14h 00m
Length of Day
13h 11m
Waxing Gibbous, 94% of the Moon is Illuminated
Dec 31
Waxing Gibbous
Jan 2
Full
Jan 10
Last Quarter
Jan 18
New
Jan 25
First Quarter

Hourly Weather History & Observations

Time (FJST) Temp. Heat Index Dew Point Humidity Pressure Visibility Wind Dir Wind Speed Gust Speed Precip Events Conditions
12:00 AM 78.8 °F - 77.0 °F 94% 29.74 in 24.9 mi Calm Calm - N/A   Mostly Cloudy
1:00 AM 78.8 °F - 77.0 °F 94% 29.77 in 24.9 mi Calm Calm - N/A   Mostly Cloudy
2:00 AM 78.8 °F - 77.0 °F 94% 29.71 in 24.9 mi NNW 8.1 mph - N/A   Mostly Cloudy
4:00 AM 77.0 °F - 75.2 °F 94% 29.71 in 24.9 mi NNW 9.2 mph - N/A   Mostly Cloudy
5:00 AM 77.0 °F - 75.2 °F 94% 29.71 in 24.9 mi NNW 8.1 mph - N/A   Mostly Cloudy
6:00 AM 77.0 °F - 75.2 °F 94% 29.74 in 31.1 mi NW 9.2 mph - N/A   Mostly Cloudy
7:00 AM 78.8 °F - 77.0 °F 94% 29.77 in 31.1 mi NNW 5.8 mph - N/A   Mostly Cloudy
8:00 AM 78.8 °F - 77.0 °F 94% 29.77 in 31.1 mi NNW 5.8 mph - N/A   Mostly Cloudy
9:00 AM 82.4 °F 90.9 °F 77.0 °F 84% 29.77 in 31.1 mi North 5.8 mph - N/A   Mostly Cloudy
10:00 AM 82.4 °F 90.9 °F 77.0 °F 84% 29.77 in 31.1 mi NNW 5.8 mph - N/A   Mostly Cloudy
11:00 AM 82.4 °F 89.5 °F 75.2 °F 79% 29.77 in 31.1 mi NW 5.8 mph - N/A   Mostly Cloudy
12:00 PM 86.0 °F 95.1 °F 75.2 °F 70% 29.77 in 31.1 mi NNW 18.4 mph - N/A   Mostly Cloudy
1:00 PM 86.0 °F 95.1 °F 75.2 °F 70% 29.77 in 31.1 mi NNW 18.4 mph - N/A   Mostly Cloudy
2:00 PM 78.8 °F - 77.0 °F 94% 29.77 in 12.4 mi North - - N/A Rain Light Rain
3:00 PM 78.8 °F - 75.2 °F 89% 29.77 in 12.4 mi NNW 12.7 mph - N/A Rain Light Rain
4:00 PM 77.0 °F - 75.2 °F 94% 29.77 in 12.4 mi WNW 15.0 mph - N/A Rain Light Rain
5:00 PM 77.0 °F - 75.2 °F 94% 29.74 in 18.6 mi North 2.3 mph - N/A   Overcast
6:00 PM 77.0 °F - 75.2 °F 94% 29.77 in 24.9 mi Calm Calm - N/A   Mostly Cloudy
7:00 PM 77.0 °F - 75.2 °F 94% 29.77 in 12.4 mi Calm Calm - N/A Rain Light Rain
8:00 PM 77.0 °F - 75.2 °F 94% 29.77 in 12.4 mi Calm Calm - N/A Rain Light Rain
9:00 PM 77.0 °F - 75.2 °F 94% 29.80 in 18.6 mi Calm Calm - N/A   Mostly Cloudy
10:00 PM 77.0 °F - 75.2 °F 94% 29.80 in 12.4 mi Calm Calm - N/A   Mostly Cloudy
11:00 PM 77.0 °F - 75.2 °F 94% 29.80 in 12.4 mi Calm Calm - N/A   Mostly Cloudy